Time,TemperatureF,DewpointF,PressureIn,WindDirection,WindDirectionDegrees,WindSpeedMPH,WindSpeedGustMPH,Humidity,HourlyPrecipIn,Conditions,Clouds,dailyrainin,SoftwareType,DateUTC
2013-05-04 00:02:00,45.5,27.4,30.16,West,270,2.2,2.2,49,0.00,,,0.00,WUHU21623XXSP,2013-05-04 07:02:00,
2013-05-04 00:07:00,45.3,27.2,30.16,West,270,1.6,2.2,49,0.00,,,0.00,WUHU21623XXSP,2013-05-04 07:07:00,
2013-05-04 00:13:00,45.3,27.2,30.16,West,270,2.0,2.0,49,0.00,,,0.00,WUHU21623XXSP,2013-05-04 07:13:00,
2013-05-04 00:18:00,45.3,27.2,30.16,West,270,1.6,2.0,49,0.00,,,0.00,WUHU21623XXSP,2013-05-04 07:18:00,
2013-05-04 00:24:00,45.1,27.1,30.16,West,270,1.6,2.2,49,0.00,,,0.00,WUHU21623XXSP,2013-05-04 07:24:00,
2013-05-04 00:29:00,45.1,27.1,30.17,West,270,0.7,2.5,49,0.00,,,0.00,WUHU21623XXSP,2013-05-04 07:29:00,
2013-05-04 00:34:00,45.1,27.6,30.17,West,270,2.2,2.2,50,0.00,,,0.00,WUHU21623XXSP,2013-05-04 07:34:00,
2013-05-04 00:39:00,45.0,27.5,30.17,West,270,1.8,2.9,50,0.00,,,0.00,WUHU21623XXSP,2013-05-04 07:39:00,
2013-05-04 00:45:00,45.0,27.5,30.17,West,270,2.5,2.9,50,0.00,,,0.00,WUHU21623XXSP,2013-05-04 07:45:00,
2013-05-04 00:50:00,44.8,27.3,30.16,West,270,2.0,2.5,50,0.00,,,0.00,WUHU21623XXSP,2013-05-04 07:50:00,
2013-05-04 00:55:00,44.6,27.1,30.16,West,270,2.0,2.0,50,0.00,,,0.00,WUHU21623XXSP,2013-05-04 07:55:00,
2013-05-04 01:00:00,44.4,27.0,30.17,West,270,1.3,2.5,50,0.00,,,0.00,WUHU21623XXSP,2013-05-04 08:00:00,
2013-05-04 01:06:00,44.4,27.4,30.16,West,270,2.0,2.5,51,0.00,,,0.00,WUHU21623XXSP,2013-05-04 08:06:00,
2013-05-04 01:11:00,44.4,27.4,30.16,West,270,2.0,3.1,51,0.00,,,0.00,WUHU21623XXSP,2013-05-04 08:11:00,
2013-05-04 01:16:00,44.2,27.2,30.16,West,270,1.6,5.4,51,0.00,,,0.00,WUHU21623XXSP,2013-05-04 08:16:00,
2013-05-04 01:22:00,44.2,27.2,30.16,WNW,292,0.7,2.5,51,0.00,,,0.00,WUHU21623XXSP,2013-05-04 08:22:00,
2013-05-04 01:27:00,44.2,27.2,30.16,West,270,2.5,2.5,51,0.00,,,0.00,WUHU21623XXSP,2013-05-04 08:27:00,
2013-05-04 01:33:00,44.2,27.2,30.16,West,270,2.0,3.8,51,0.00,,,0.00,WUHU21623XXSP,2013-05-04 08:33:00,
2013-05-04 01:38:00,44.2,27.2,30.15,West,270,1.6,3.8,51,0.00,,,0.00,WUHU21623XXSP,2013-05-04 08:38:00,
2013-05-04 01:43:00,44.2,27.2,30.15,West,270,2.9,3.1,51,0.00,,,0.00,WUHU21623XXSP,2013-05-04 08:43:00,
2013-05-04 01:48:00,44.2,27.2,30.15,West,270,2.9,2.9,51,0.00,,,0.00,WUHU21623XXSP,2013-05-04 08:48:00,
2013-05-04 01:53:00,44.2,27.7,30.15,West,270,0.4,3.4,52,0.00,,,0.00,WUHU21623XXSP,2013-05-04 08:53:00,
2013-05-04 01:59:00,44.2,27.2,30.15,West,270,0.2,3.4,51,0.00,,,0.00,WUHU21623XXSP,2013-05-04 08:59:00,
2013-05-04 02:04:00,44.2,27.2,30.14,West,270,1.8,2.2,51,0.00,,,0.00,WUHU21623XXSP,2013-05-04 09:04:00,
2013-05-04 02:09:00,44.2,27.2,30.15,West,270,1.6,2.2,51,0.00,,,0.00,WUHU21623XXSP,2013-05-04 09:09:00,
2013-05-04 02:14:00,44.2,27.2,30.14,West,270,1.1,1.8,51,0.00,,,0.00,WUHU21623XXSP,2013-05-04 09:14:00,
2013-05-04 02:20:00,44.1,27.5,30.14,West,270,2.7,2.7,52,0.00,,,0.00,WUHU21623XXSP,2013-05-04 09:20:00,
2013-05-04 02:25:00,44.1,27.5,30.14,West,270,2.2,2.7,52,0.00,,,0.00,WUHU21623XXSP,2013-05-04 09:25:00,
2013-05-04 02:31:00,43.9,27.4,30.14,West,270,0.0,2.7,52,0.00,,,0.00,WUHU21623XXSP,2013-05-04 09:31:00,
2013-05-04 02:36:00,43.9,27.4,30.14,West,270,2.0,2.7,52,0.00,,,0.00,WUHU21623XXSP,2013-05-04 09:36:00,
2013-05-04 02:41:00,43.7,27.2,30.13,West,270,2.2,2.2,52,0.00,,,0.00,WUHU21623XXSP,2013-05-04 09:41:00,
2013-05-04 02:46:00,43.5,27.0,30.14,West,270,0.7,2.5,52,0.00,,,0.00,WUHU21623XXSP,2013-05-04 09:46:00,
2013-05-04 02:52:00,43.3,26.9,30.13,West,270,0.0,2.5,52,0.00,,,0.00,WUHU21623XXSP,2013-05-04 09:52:00,
2013-05-04 02:57:00,43.2,26.7,30.13,West,270,0.0,2.9,52,0.00,,,0.00,WUHU21623XXSP,2013-05-04 09:57:00,
2013-05-04 03:02:00,43.0,26.5,30.13,West,270,0.0,2.9,52,0.00,,,0.00,WUHU21623XXSP,2013-05-04 10:02:00,
2013-05-04 03:07:00,42.6,26.2,30.13,West,270,0.0,0.0,52,0.00,,,0.00,WUHU21623XXSP,2013-05-04 10:07:00,
2013-05-04 03:13:00,42.6,26.2,30.13,West,270,0.0,0.0,52,0.00,,,0.00,WUHU21623XXSP,2013-05-04 10:13:00,
2013-05-04 03:18:00,42.4,26.5,30.13,West,270,0.0,0.0,53,0.00,,,0.00,WUHU21623XXSP,2013-05-04 10:18:00,
2013-05-04 03:23:00,42.1,26.1,30.13,West,270,0.0,0.0,53,0.00,,,0.00,WUHU21623XXSP,2013-05-04 10:23:00,
2013-05-04 03:29:00,42.1,26.1,30.13,West,270,0.0,0.0,53,0.00,,,0.00,WUHU21623XXSP,2013-05-04 10:29:00,
2013-05-04 03:34:00,42.1,26.1,30.12,West,270,0.0,0.0,53,0.00,,,0.00,WUHU21623XXSP,2013-05-04 10:34:00,
2013-05-04 03:40:00,42.1,26.5,30.12,West,270,0.0,0.0,54,0.00,,,0.00,WUHU21623XXSP,2013-05-04 10:40:00,
2013-05-04 03:45:00,42.1,26.5,30.12,West,270,0.0,0.0,54,0.00,,,0.00,WUHU21623XXSP,2013-05-04 10:45:00,
2013-05-04 03:50:00,42.1,26.5,30.12,West,270,0.0,0.0,54,0.00,,,0.00,WUHU21623XXSP,2013-05-04 10:50:00,
2013-05-04 03:55:00,42.1,26.5,30.12,West,270,0.0,0.0,54,0.00,,,0.00,WUHU21623XXSP,2013-05-04 10:55:00,
2013-05-04 04:01:00,42.1,26.1,30.12,West,270,0.0,0.0,53,0.00,,,0.00,WUHU21623XXSP,2013-05-04 11:01:00,
2013-05-04 04:06:00,41.9,26.4,30.12,West,270,0.0,0.0,54,0.00,,,0.00,WUHU21623XXSP,2013-05-04 11:06:00,
2013-05-04 04:11:00,41.7,26.2,30.12,West,270,0.0,0.0,54,0.00,,,0.00,WUHU21623XXSP,2013-05-04 11:11:00,
2013-05-04 04:16:00,41.5,26.0,30.12,West,270,0.0,0.0,54,0.00,,,0.00,WUHU21623XXSP,2013-05-04 11:16:00,
2013-05-04 04:21:00,41.2,26.1,30.12,West,270,0.0,0.0,55,0.00,,,0.00,WUHU21623XXSP,2013-05-04 11:21:00,
2013-05-04 04:28:00,40.6,25.2,30.12,West,270,0.0,0.0,54,0.00,,,0.00,WUHU21623XXSP,2013-05-04 11:28:00,
2013-05-04 04:33:00,40.1,25.1,30.12,West,270,0.0,0.0,55,0.00,,,0.00,WUHU21623XXSP,2013-05-04 11:33:00,
2013-05-04 04:38:00,39.9,24.9,30.12,West,270,0.0,0.0,55,0.00,,,0.00,WUHU21623XXSP,2013-05-04 11:38:00,
2013-05-04 04:43:00,39.6,24.6,30.12,West,270,0.0,0.0,55,0.00,,,0.00,WUHU21623XXSP,2013-05-04 11:43:00,
2013-05-04 04:48:00,39.4,24.9,30.12,West,270,0.0,0.0,56,0.00,,,0.00,WUHU21623XXSP,2013-05-04 11:48:00,
2013-05-04 04:55:00,39.0,24.5,30.12,West,270,0.0,0.0,56,0.00,,,0.00,WUHU21623XXSP,2013-05-04 11:55:00,
2013-05-04 05:00:00,38.8,24.8,30.11,West,270,0.0,0.0,57,0.00,,,0.00,WUHU21623XXSP,2013-05-04 12:00:00,
2013-05-04 05:05:00,38.3,24.3,30.11,West,270,0.0,0.0,57,0.00,,,0.00,WUHU21623XXSP,2013-05-04 12:05:00,
2013-05-04 05:10:00,38.3,24.7,30.11,West,270,0.0,0.0,58,0.00,,,0.00,WUHU21623XXSP,2013-05-04 12:10:00,
2013-05-04 05:15:00,38.1,24.6,30.11,West,270,0.0,0.0,58,0.00,,,0.00,WUHU21623XXSP,2013-05-04 12:15:00,
2013-05-04 05:21:00,37.9,24.4,30.12,West,270,0.0,0.0,58,0.00,,,0.00,WUHU21623XXSP,2013-05-04 12:21:00,
2013-05-04 05:26:00,37.8,24.3,30.11,West,270,0.0,0.0,58,0.00,,,0.00,WUHU21623XXSP,2013-05-04 12:26:00,
2013-05-04 05:31:00,37.2,24.2,30.11,West,270,0.0,0.0,59,0.00,,,0.00,WUHU21623XXSP,2013-05-04 12:31:00,
2013-05-04 05:36:00,37.0,24.5,30.11,West,270,0.0,0.0,60,0.00,,,0.00,WUHU21623XXSP,2013-05-04 12:36:00,
2013-05-04 05:42:00,37.0,24.5,30.12,West,270,0.0,0.0,60,0.00,,,0.00,WUHU21623XXSP,2013-05-04 12:42:00,
2013-05-04 05:47:00,37.0,24.5,30.12,West,270,0.0,0.0,60,0.00,,,0.00,WUHU21623XXSP,2013-05-04 12:47:00,
2013-05-04 05:52:00,36.7,24.2,30.12,West,270,0.0,0.0,60,0.00,,,0.00,WUHU21623XXSP,2013-05-04 12:52:00,
2013-05-04 05:57:00,36.5,24.0,30.12,West,270,0.0,0.0,60,0.00,,,0.00,WUHU21623XXSP,2013-05-04 12:57:00,
2013-05-04 06:03:00,36.3,24.2,30.12,West,270,0.0,0.0,61,0.00,,,0.00,WUHU21623XXSP,2013-05-04 13:03:00,
2013-05-04 06:08:00,36.1,24.0,30.12,West,270,0.0,0.0,61,0.00,,,0.00,WUHU21623XXSP,2013-05-04 13:08:00,
2013-05-04 06:13:00,36.0,23.9,30.12,West,270,0.0,0.0,61,0.00,,,0.00,WUHU21623XXSP,2013-05-04 13:13:00,
2013-05-04 06:18:00,36.1,24.4,30.12,West,270,0.0,0.0,62,0.00,,,0.00,WUHU21623XXSP,2013-05-04 13:18:00,
2013-05-04 06:23:00,36.1,24.4,30.12,West,270,0.0,0.0,62,0.00,,,0.00,WUHU21623XXSP,2013-05-04 13:23:00,
2013-05-04 06:29:00,36.3,24.9,30.12,West,270,0.0,0.0,63,0.00,,,0.00,WUHU21623XXSP,2013-05-04 13:29:00,
2013-05-04 06:34:00,36.7,25.3,30.12,West,270,0.0,0.0,63,0.00,,,0.00,WUHU21623XXSP,2013-05-04 13:34:00,
2013-05-04 06:39:00,37.2,25.8,30.12,West,270,0.0,0.0,63,0.00,,,0.00,WUHU21623XXSP,2013-05-04 13:39:00,
2013-05-04 06:44:00,37.6,26.1,30.12,WSW,247,0.0,0.0,63,0.00,,,0.00,WUHU21623XXSP,2013-05-04 13:44:00,
2013-05-04 06:50:00,38.1,26.6,30.12,WSW,247,0.0,0.0,63,0.00,,,0.00,WUHU21623XXSP,2013-05-04 13:50:00,
2013-05-04 06:55:00,38.7,27.1,30.12,WSW,247,0.0,0.0,63,0.00,,,0.00,WUHU21623XXSP,2013-05-04 13:55:00,
2013-05-04 07:00:00,39.6,28.3,30.12,WSW,247,0.0,0.0,64,0.00,,,0.00,WUHU21623XXSP,2013-05-04 14:00:00,
2013-05-04 07:05:00,40.3,29.0,30.12,WSW,247,0.0,0.0,64,0.00,,,0.00,WUHU21623XXSP,2013-05-04 14:05:00,
2013-05-04 07:11:00,40.8,29.2,30.12,WSW,247,0.0,0.0,63,0.00,,,0.00,WUHU21623XXSP,2013-05-04 14:11:00,
2013-05-04 07:16:00,42.1,30.0,30.12,NNW,337,0.7,0.7,62,0.00,,,0.00,WUHU21623XXSP,2013-05-04 14:16:00,
2013-05-04 07:22:00,43.7,30.7,30.12,North,0,0.0,0.7,60,0.00,,,0.00,WUHU21623XXSP,2013-05-04 14:22:00,
2013-05-04 07:27:00,45.0,31.5,30.12,NNW,337,0.0,0.9,59,0.00,,,0.00,WUHU21623XXSP,2013-05-04 14:27:00,
2013-05-04 07:32:00,46.6,32.1,30.12,West,270,0.0,6.0,57,0.00,,,0.00,WUHU21623XXSP,2013-05-04 14:32:00,
2013-05-04 07:37:00,47.8,32.8,30.12,NNE,22,0.0,6.0,56,0.00,,,0.00,WUHU21623XXSP,2013-05-04 14:37:00,
2013-05-04 07:43:00,48.9,33.4,30.12,NNE,22,0.0,1.3,55,0.00,,,0.00,WUHU21623XXSP,2013-05-04 14:43:00,
2013-05-04 07:48:00,50.9,34.3,30.12,North,0,2.9,2.9,53,0.00,,,0.00,WUHU21623XXSP,2013-05-04 14:48:00,
2013-05-04 07:53:00,51.6,34.1,30.12,NE,45,3.1,3.1,51,0.00,,,0.00,WUHU21623XXSP,2013-05-04 14:53:00,
2013-05-04 07:58:00,52.9,34.8,30.12,NW,315,1.6,3.1,50,0.00,,,0.00,WUHU21623XXSP,2013-05-04 14:58:00,
2013-05-04 08:04:00,53.4,34.1,30.12,ENE,67,1.3,1.6,48,0.00,,,0.00,WUHU21623XXSP,2013-05-04 15:04:00,
2013-05-04 08:09:00,54.3,34.4,30.12,NE,45,0.0,3.1,47,0.00,,,0.00,WUHU21623XXSP,2013-05-04 15:09:00,
2013-05-04 08:14:00,55.0,34.5,30.12,NE,45,1.3,3.1,46,0.00,,,0.00,WUHU21623XXSP,2013-05-04 15:14:00,
2013-05-04 08:19:00,55.6,35.0,30.12,NNW,337,7.2,7.2,46,0.00,,,0.00,WUHU21623XXSP,2013-05-04 15:19:00,
2013-05-04 08:25:00,56.8,35.6,30.12,NE,45,0.0,7.2,45,0.00,,,0.00,WUHU21623XXSP,2013-05-04 15:25:00,
2013-05-04 08:30:00,57.9,36.0,30.11,NE,45,0.0,3.4,44,0.00,,,0.00,WUHU21623XXSP,2013-05-04 15:30:00,
2013-05-04 08:36:00,58.6,36.1,30.11,NE,45,7.2,7.2,43,0.00,,,0.00,WUHU21623XXSP,2013-05-04 15:36:00,
2013-05-04 08:41:00,58.8,36.3,30.11,NE,45,3.8,7.6,43,0.00,,,0.00,WUHU21623XXSP,2013-05-04 15:41:00,
2013-05-04 08:46:00,59.2,36.6,30.11,ENE,67,0.0,7.6,43,0.00,,,0.00,WUHU21623XXSP,2013-05-04 15:46:00,
2013-05-04 08:51:00,60.4,37.1,30.11,West,270,0.0,1.3,42,0.00,,,0.00,WUHU21623XXSP,2013-05-04 15:51:00,
2013-05-04 08:57:00,61.3,38.0,30.11,NNW,337,0.0,1.6,42,0.00,,,0.00,WUHU21623XXSP,2013-05-04 15:57:00,
2013-05-04 09:02:00,61.9,37.3,30.11,NNE,22,3.8,6.3,40,0.00,,,0.00,WUHU21623XXSP,2013-05-04 16:02:00,
2013-05-04 09:07:00,62.1,37.5,30.11,NNE,22,6.3,8.1,40,0.00,,,0.00,WUHU21623XXSP,2013-05-04 16:07:00,
2013-05-04 09:12:00,62.4,38.4,30.11,West,270,0.0,6.3,41,0.00,,,0.00,WUHU21623XXSP,2013-05-04 16:12:00,
2013-05-04 09:18:00,63.5,38.8,30.11,NE,45,0.0,3.8,40,0.00,,,0.00,WUHU21623XXSP,2013-05-04 16:18:00,
2013-05-04 09:23:00,64.2,38.7,30.11,NE,45,1.3,5.4,39,0.00,,,0.00,WUHU21623XXSP,2013-05-04 16:23:00,
2013-05-04 09:29:00,65.1,39.5,30.11,NNW,337,0.0,5.4,39,0.00,,,0.00,WUHU21623XXSP,2013-05-04 16:29:00,
2013-05-04 09:34:00,65.3,38.9,30.11,NE,45,0.0,10.1,38,0.00,,,0.00,WUHU21623XXSP,2013-05-04 16:34:00,
2013-05-04 09:39:00,65.1,38.8,30.10,NNE,22,3.8,10.1,38,0.00,,,0.00,WUHU21623XXSP,2013-05-04 16:39:00,
2013-05-04 09:45:00,65.3,38.9,30.10,ENE,67,3.6,9.6,38,0.00,,,0.00,WUHU21623XXSP,2013-05-04 16:45:00,
2013-05-04 09:50:00,65.3,38.2,30.09,NNE,22,2.7,8.3,37,0.00,,,0.00,WUHU21623XXSP,2013-05-04 16:50:00,
2013-05-04 09:55:00,65.8,38.7,30.09,NE,45,2.2,7.4,37,0.00,,,0.00,WUHU21623XXSP,2013-05-04 16:55:00,
2013-05-04 10:00:00,65.7,38.5,30.09,NNE,22,5.4,5.4,37,0.00,,,0.00,WUHU21623XXSP,2013-05-04 17:00:00,
2013-05-04 10:05:00,65.8,38.7,30.09,NE,45,5.4,5.4,37,0.00,,,0.00,WUHU21623XXSP,2013-05-04 17:05:00,
2013-05-04 10:11:00,66.4,39.2,30.09,North,0,6.5,8.3,37,0.00,,,0.00,WUHU21623XXSP,2013-05-04 17:11:00,
2013-05-04 10:16:00,66.7,38.8,30.09,North,0,3.1,8.3,36,0.00,,,0.00,WUHU21623XXSP,2013-05-04 17:16:00,
2013-05-04 10:21:00,66.7,38.8,30.09,NNW,337,5.6,5.6,36,0.00,,,0.00,WUHU21623XXSP,2013-05-04 17:21:00,
2013-05-04 10:26:00,67.3,39.2,30.08,North,0,8.3,8.3,36,0.00,,,0.00,WUHU21623XXSP,2013-05-04 17:26:00,
2013-05-04 10:32:00,67.8,39.7,30.08,NE,45,0.0,8.3,36,0.00,,,0.00,WUHU21623XXSP,2013-05-04 17:32:00,
2013-05-04 10:38:00,68.5,38.9,30.08,North,0,12.3,12.3,34,0.00,,,0.00,WUHU21623XXSP,2013-05-04 17:38:00,
2013-05-04 10:43:00,67.8,38.2,30.08,NE,45,4.3,12.3,34,0.00,,,0.00,WUHU21623XXSP,2013-05-04 17:43:00,
2013-05-04 10:48:00,67.5,37.9,30.08,NNE,22,6.3,6.9,34,0.00,,,0.00,WUHU21623XXSP,2013-05-04 17:48:00,
2013-05-04 10:53:00,66.9,37.5,30.08,NNE,22,6.9,6.9,34,0.00,,,0.00,WUHU21623XXSP,2013-05-04 17:53:00,
2013-05-04 10:58:00,66.0,37.4,30.08,NNE,22,3.1,15.9,35,0.00,,,0.00,WUHU21623XXSP,2013-05-04 17:58:00,
2013-05-04 11:04:00,66.4,37.7,30.08,NE,45,13.2,15.9,35,0.00,,,0.00,WUHU21623XXSP,2013-05-04 18:04:00,
2013-05-04 11:09:00,66.4,37.0,30.08,NNE,22,1.6,13.2,34,0.00,,,0.00,WUHU21623XXSP,2013-05-04 18:09:00,
2013-05-04 11:14:00,66.2,38.3,30.08,NE,45,4.5,6.0,36,0.00,,,0.00,WUHU21623XXSP,2013-05-04 18:14:00,
2013-05-04 11:19:00,66.6,35.7,30.08,North,0,23.3,23.3,32,0.00,,,0.00,WUHU21623XXSP,2013-05-04 18:19:00,
2013-05-04 11:25:00,66.0,36.0,30.08,NNE,22,7.6,23.3,33,0.00,,,0.00,WUHU21623XXSP,2013-05-04 18:25:00,
2013-05-04 11:30:00,66.0,35.3,30.07,NNW,337,9.8,12.3,32,0.00,,,0.00,WUHU21623XXSP,2013-05-04 18:30:00,
2013-05-04 11:36:00,65.8,35.8,30.07,NNE,22,8.3,10.3,33,0.00,,,0.00,WUHU21623XXSP,2013-05-04 18:36:00,
2013-05-04 11:41:00,66.4,36.3,30.07,North,0,3.1,8.3,33,0.00,,,0.00,WUHU21623XXSP,2013-05-04 18:41:00,
2013-05-04 11:46:00,66.6,36.4,30.08,NE,45,4.5,11.0,33,0.00,,,0.00,WUHU21623XXSP,2013-05-04 18:46:00,
2013-05-04 11:52:00,66.7,37.3,30.07,NW,315,7.8,11.0,34,0.00,,,0.00,WUHU21623XXSP,2013-05-04 18:52:00,
2013-05-04 11:57:00,66.9,36.7,30.07,ENE,67,7.2,9.2,33,0.00,,,0.00,WUHU21623XXSP,2013-05-04 18:57:00,
2013-05-04 12:02:00,66.9,36.7,30.07,NE,45,7.8,21.5,33,0.00,,,0.00,WUHU21623XXSP,2013-05-04 19:02:00,
2013-05-04 12:07:00,66.7,37.3,30.06,North,0,8.9,21.5,34,0.00,,,0.00,WUHU21623XXSP,2013-05-04 19:07:00,
2013-05-04 12:13:00,66.9,37.5,30.06,NE,45,0.0,9.6,34,0.00,,,0.00,WUHU21623XXSP,2013-05-04 19:13:00,
2013-05-04 12:18:00,66.9,37.5,30.06,NNE,22,11.6,11.6,34,0.00,,,0.00,WUHU21623XXSP,2013-05-04 19:18:00,
2013-05-04 12:23:00,66.9,37.5,30.06,NE,45,0.0,11.6,34,0.00,,,0.00,WUHU21623XXSP,2013-05-04 19:23:00,
2013-05-04 12:28:00,67.3,37.8,30.06,West,270,6.5,6.7,34,0.00,,,0.00,WUHU21623XXSP,2013-05-04 19:28:00,
2013-05-04 12:34:00,67.1,37.6,30.05,NNE,22,21.9,21.9,34,0.00,,,0.00,WUHU21623XXSP,2013-05-04 19:34:00,
2013-05-04 12:40:00,66.9,37.5,30.05,NNE,22,12.5,21.9,34,0.00,,,0.00,WUHU21623XXSP,2013-05-04 19:40:00,
2013-05-04 12:45:00,66.7,36.6,30.04,North,0,14.5,14.5,33,0.00,,,0.00,WUHU21623XXSP,2013-05-04 19:45:00,
2013-05-04 12:50:00,66.6,37.9,30.04,NE,45,1.3,14.5,35,0.00,,,0.00,WUHU21623XXSP,2013-05-04 19:50:00,
2013-05-04 12:55:00,66.7,37.3,30.04,North,0,6.0,15.4,34,0.00,,,0.00,WUHU21623XXSP,2013-05-04 19:55:00,
2013-05-04 13:00:00,67.1,37.6,30.03,ENE,67,12.5,15.4,34,0.00,,,0.00,WUHU21623XXSP,2013-05-04 20:00:00,
2013-05-04 13:06:00,67.1,37.6,30.03,ENE,67,4.5,13.0,34,0.00,,,0.00,WUHU21623XXSP,2013-05-04 20:06:00,
2013-05-04 13:11:00,66.9,37.5,30.02,ENE,67,3.4,5.8,34,0.00,,,0.00,WUHU21623XXSP,2013-05-04 20:11:00,
2013-05-04 13:16:00,67.1,36.9,30.03,NNW,337,19.5,19.5,33,0.00,,,0.00,WUHU21623XXSP,2013-05-04 20:16:00,
2013-05-04 13:21:00,66.9,36.7,30.03,NNE,22,3.6,19.5,33,0.00,,,0.00,WUHU21623XXSP,2013-05-04 20:21:00,
2013-05-04 13:27:00,66.9,37.5,30.03,NE,45,6.5,9.6,34,0.00,,,0.00,WUHU21623XXSP,2013-05-04 20:27:00,
2013-05-04 13:32:00,67.1,37.6,30.03,NE,45,3.6,9.6,34,0.00,,,0.00,WUHU21623XXSP,2013-05-04 20:32:00,
2013-05-04 13:37:00,67.3,37.0,30.04,ENE,67,11.9,11.9,33,0.00,,,0.00,WUHU21623XXSP,2013-05-04 20:37:00,
2013-05-04 13:43:00,67.3,37.0,30.03,NNE,22,7.4,11.9,33,0.00,,,0.00,WUHU21623XXSP,2013-05-04 20:43:00,
2013-05-04 13:48:00,67.3,37.0,30.03,NE,45,0.9,7.4,33,0.00,,,0.00,WUHU21623XXSP,2013-05-04 20:48:00,
2013-05-04 13:53:00,67.6,38.1,30.02,NNW,337,19.2,19.2,34,0.00,,,0.00,WUHU21623XXSP,2013-05-04 20:53:00,
2013-05-04 13:59:00,68.4,38.0,30.02,NNW,337,6.9,19.2,33,0.00,,,0.00,WUHU21623XXSP,2013-05-04 20:59:00,
2013-05-04 14:04:00,68.5,38.1,30.01,ENE,67,9.4,24.6,33,0.00,,,0.00,WUHU21623XXSP,2013-05-04 21:04:00,
2013-05-04 14:09:00,68.5,38.1,30.01,NW,315,2.9,24.6,33,0.00,,,0.00,WUHU21623XXSP,2013-05-04 21:09:00,
2013-05-04 14:14:00,68.5,37.4,30.01,NNE,22,5.6,25.9,32,0.00,,,0.00,WUHU21623XXSP,2013-05-04 21:14:00,
2013-05-04 14:20:00,68.4,38.0,30.01,North,0,7.8,25.9,33,0.00,,,0.00,WUHU21623XXSP,2013-05-04 21:20:00,
2013-05-04 14:25:00,68.5,38.1,30.01,NE,45,3.6,7.8,33,0.00,,,0.00,WUHU21623XXSP,2013-05-04 21:25:00,
2013-05-04 14:30:00,68.7,37.5,30.01,NE,45,5.6,6.5,32,0.00,,,0.00,WUHU21623XXSP,2013-05-04 21:30:00,
2013-05-04 14:35:00,68.7,37.5,30.01,NE,45,5.1,15.0,32,0.00,,,0.00,WUHU21623XXSP,2013-05-04 21:35:00,
2013-05-04 14:41:00,68.5,36.6,30.01,ENE,67,3.6,15.0,31,0.00,,,0.00,WUHU21623XXSP,2013-05-04 21:41:00,
2013-05-04 14:47:00,68.2,37.1,30.01,NE,45,3.4,6.5,32,0.00,,,0.00,WUHU21623XXSP,2013-05-04 21:47:00,
2013-05-04 14:52:00,68.5,37.4,30.01,NE,45,8.5,8.5,32,0.00,,,0.00,WUHU21623XXSP,2013-05-04 21:52:00,
2013-05-04 14:57:00,68.7,36.8,30.00,NNE,22,14.3,14.3,31,0.00,,,0.00,WUHU21623XXSP,2013-05-04 21:57:00,
2013-05-04 15:02:00,68.7,37.5,30.01,NE,45,3.8,14.3,32,0.00,,,0.00,WUHU21623XXSP,2013-05-04 22:02:00,
2013-05-04 15:08:00,68.2,37.1,30.00,ENE,67,12.5,12.5,32,0.00,,,0.00,WUHU21623XXSP,2013-05-04 22:08:00,
2013-05-04 15:13:00,67.8,36.0,30.01,North,0,6.9,12.5,31,0.00,,,0.00,WUHU21623XXSP,2013-05-04 22:13:00,
2013-05-04 15:18:00,67.8,36.0,30.00,NE,45,18.8,18.8,31,0.00,,,0.00,WUHU21623XXSP,2013-05-04 22:18:00,
2013-05-04 15:23:00,66.9,36.0,30.00,WSW,247,4.9,18.8,32,0.00,,,0.00,WUHU21623XXSP,2013-05-04 22:23:00,
2013-05-04 15:28:00,66.9,36.0,30.00,WSW,247,10.5,10.5,32,0.00,,,0.00,WUHU21623XXSP,2013-05-04 22:28:00,
2013-05-04 15:34:00,67.5,36.4,30.00,WSW,247,15.9,19.9,32,0.00,,,0.00,WUHU21623XXSP,2013-05-04 22:34:00,
2013-05-04 15:39:00,67.6,35.9,30.00,East,90,6.5,19.9,31,0.00,,,0.00,WUHU21623XXSP,2013-05-04 22:39:00,
2013-05-04 15:44:00,67.3,35.6,29.99,WSW,247,2.9,11.6,31,0.00,,,0.00,WUHU21623XXSP,2013-05-04 22:44:00,
2013-05-04 15:50:00,67.3,36.3,29.98,WSW,247,9.4,9.4,32,0.00,,,0.00,WUHU21623XXSP,2013-05-04 22:50:00,
2013-05-04 15:55:00,67.6,35.9,29.98,NNE,22,10.7,14.8,31,0.00,,,0.00,WUHU21623XXSP,2013-05-04 22:55:00,
2013-05-04 16:01:00,67.6,35.9,29.98,WSW,247,0.9,14.8,31,0.00,,,0.00,WUHU21623XXSP,2013-05-04 23:01:00,
2013-05-04 16:06:00,67.6,35.9,29.98,WSW,247,1.8,8.3,31,0.00,,,0.00,WUHU21623XXSP,2013-05-04 23:06:00,
2013-05-04 16:11:00,67.6,35.9,29.98,WSW,247,9.2,9.2,31,0.00,,,0.00,WUHU21623XXSP,2013-05-04 23:11:00,
2013-05-04 16:16:00,67.8,36.0,29.97,WSW,247,6.5,9.2,31,0.00,,,0.00,WUHU21623XXSP,2013-05-04 23:16:00,
2013-05-04 16:21:00,67.8,35.3,29.97,WSW,247,6.9,6.9,30,0.00,,,0.00,WUHU21623XXSP,2013-05-04 23:21:00,
2013-05-04 16:27:00,67.6,35.1,29.98,WSW,247,6.3,7.4,30,0.00,,,0.00,WUHU21623XXSP,2013-05-04 23:27:00,
2013-05-04 16:32:00,67.6,35.1,29.98,WSW,247,6.0,7.4,30,0.00,,,0.00,WUHU21623XXSP,2013-05-04 23:32:00,
2013-05-04 16:37:00,67.3,34.8,29.97,WSW,247,4.0,6.0,30,0.00,,,0.00,WUHU21623XXSP,2013-05-04 23:37:00,
2013-05-04 16:42:00,67.3,34.8,29.97,WSW,247,10.7,10.7,30,0.00,,,0.00,WUHU21623XXSP,2013-05-04 23:42:00,
2013-05-04 16:48:00,67.1,34.7,29.97,WSW,247,10.1,11.9,30,0.00,,,0.00,WUHU21623XXSP,2013-05-04 23:48:00,
2013-05-04 16:53:00,66.7,34.4,29.96,WSW,247,5.8,11.9,30,0.00,,,0.00,WUHU21623XXSP,2013-05-04 23:53:00,
2013-05-04 16:59:00,66.7,35.1,29.96,WSW,247,10.5,10.5,31,0.00,,,0.00,WUHU21623XXSP,2013-05-04 23:59:00,
2013-05-04 17:04:00,66.6,35.0,29.97,WSW,247,1.3,10.5,31,0.00,,,0.00,WUHU21623XXSP,2013-05-05 00:04:00,
2013-05-04 17:09:00,66.6,35.0,29.96,WSW,247,12.3,12.3,31,0.00,,,0.00,WUHU21623XXSP,2013-05-05 00:09:00,
2013-05-04 17:14:00,66.4,34.8,29.96,NE,45,3.6,13.0,31,0.00,,,0.00,WUHU21623XXSP,2013-05-05 00:14:00,
2013-05-04 17:20:00,66.4,34.8,29.96,ENE,67,7.6,11.6,31,0.00,,,0.00,WUHU21623XXSP,2013-05-05 00:20:00,
2013-05-04 17:25:00,66.2,34.0,29.96,NE,45,16.8,16.8,30,0.00,,,0.00,WUHU21623XXSP,2013-05-05 00:25:00,
2013-05-04 17:30:00,66.0,33.8,29.96,ENE,67,4.5,16.8,30,0.00,,,0.00,WUHU21623XXSP,2013-05-05 00:30:00,
2013-05-04 17:35:00,66.0,33.8,29.96,North,0,13.6,13.6,30,0.00,,,0.00,WUHU21623XXSP,2013-05-05 00:35:00,
2013-05-04 17:41:00,65.8,33.7,29.96,NNE,22,6.3,13.6,30,0.00,,,0.00,WUHU21623XXSP,2013-05-05 00:41:00,
2013-05-04 17:46:00,65.8,33.7,29.96,ENE,67,7.4,7.4,30,0.00,,,0.00,WUHU21623XXSP,2013-05-05 00:46:00,
2013-05-04 17:51:00,65.7,33.5,29.96,NNW,337,7.4,7.4,30,0.00,,,0.00,WUHU21623XXSP,2013-05-05 00:51:00,
2013-05-04 17:57:00,65.5,33.3,29.95,NNW,337,22.1,22.1,30,0.00,,,0.00,WUHU21623XXSP,2013-05-05 00:57:00,
2013-05-04 18:02:00,65.3,33.2,29.96,ENE,67,6.5,22.1,30,0.00,,,0.00,WUHU21623XXSP,2013-05-05 01:02:00,
2013-05-04 18:08:00,65.1,32.0,29.96,NE,45,19.9,19.9,29,0.00,,,0.00,WUHU21623XXSP,2013-05-05 01:08:00,
2013-05-04 18:13:00,65.1,32.0,29.96,ENE,67,4.7,19.9,29,0.00,,,0.00,WUHU21623XXSP,2013-05-05 01:13:00,
2013-05-04 18:18:00,64.9,31.8,29.96,ENE,67,2.9,10.3,29,0.00,,,0.00,WUHU21623XXSP,2013-05-05 01:18:00,
2013-05-04 18:23:00,64.8,31.7,29.95,NE,45,3.4,9.6,29,0.00,,,0.00,WUHU21623XXSP,2013-05-05 01:23:00,
2013-05-04 18:29:00,64.6,31.5,29.95,ENE,67,7.6,9.6,29,0.00,,,0.00,WUHU21623XXSP,2013-05-05 01:29:00,
2013-05-04 18:34:00,64.6,32.5,29.95,NE,45,13.4,13.4,30,0.00,,,0.00,WUHU21623XXSP,2013-05-05 01:34:00,
2013-05-04 18:39:00,64.4,31.4,29.95,NE,45,4.7,13.4,29,0.00,,,0.00,WUHU21623XXSP,2013-05-05 01:39:00,
2013-05-04 18:44:00,64.2,31.2,29.95,East,90,0.0,10.5,29,0.00,,,0.00,WUHU21623XXSP,2013-05-05 01:44:00,
2013-05-04 18:49:00,64.2,32.9,29.95,ENE,67,8.3,25.3,31,0.00,,,0.00,WUHU21623XXSP,2013-05-05 01:49:00,
2013-05-04 18:56:00,64.0,32.8,29.95,ENE,67,5.8,25.3,31,0.00,,,0.00,WUHU21623XXSP,2013-05-05 01:56:00,
2013-05-04 19:01:00,63.7,32.4,29.95,NE,45,3.1,7.4,31,0.00,,,0.00,WUHU21623XXSP,2013-05-05 02:01:00,
2013-05-04 19:06:00,63.5,32.3,29.95,NNE,22,12.1,12.1,31,0.00,,,0.00,WUHU21623XXSP,2013-05-05 02:06:00,
2013-05-04 19:11:00,63.3,32.1,29.95,East,90,0.0,17.4,31,0.00,,,0.00,WUHU21623XXSP,2013-05-05 02:11:00,
2013-05-04 19:16:00,63.1,32.7,29.95,NE,45,4.9,17.4,32,0.00,,,0.00,WUHU21623XXSP,2013-05-05 02:16:00,
2013-05-04 19:22:00,63.1,32.7,29.95,SE,135,7.2,7.2,32,0.00,,,0.00,WUHU21623XXSP,2013-05-05 02:22:00,
2013-05-04 19:27:00,63.0,32.5,29.95,ENE,67,3.8,7.2,32,0.00,,,0.00,WUHU21623XXSP,2013-05-05 02:27:00,
2013-05-04 19:32:00,62.6,32.2,29.95,NNE,22,8.5,8.5,32,0.00,,,0.00,WUHU21623XXSP,2013-05-05 02:32:00,
2013-05-04 19:37:00,62.4,32.0,29.95,NE,45,6.5,8.5,32,0.00,,,0.00,WUHU21623XXSP,2013-05-05 02:37:00,
2013-05-04 19:43:00,62.2,31.9,29.95,NNE,22,11.6,11.6,32,0.00,,,0.00,WUHU21623XXSP,2013-05-05 02:43:00,
2013-05-04 19:48:00,62.1,32.4,29.95,NNE,22,6.7,11.6,33,0.00,,,0.00,WUHU21623XXSP,2013-05-05 02:48:00,
2013-05-04 19:53:00,61.7,32.1,29.95,NNW,337,6.5,6.7,33,0.00,,,0.00,WUHU21623XXSP,2013-05-05 02:53:00,
2013-05-04 19:58:00,61.5,31.9,29.95,NE,45,1.8,6.5,33,0.00,,,0.00,WUHU21623XXSP,2013-05-05 02:58:00,
2013-05-04 20:04:00,61.3,31.8,29.96,NNE,22,8.7,18.3,33,0.00,,,0.00,WUHU21623XXSP,2013-05-05 03:04:00,
2013-05-04 20:09:00,61.2,31.6,29.95,NE,45,3.8,18.3,33,0.00,,,0.00,WUHU21623XXSP,2013-05-05 03:09:00,
2013-05-04 20:14:00,61.0,32.2,29.96,NE,45,5.1,5.1,34,0.00,,,0.00,WUHU21623XXSP,2013-05-05 03:14:00,
2013-05-04 20:19:00,60.6,31.8,29.96,NE,45,6.3,6.3,34,0.00,,,0.00,WUHU21623XXSP,2013-05-05 03:19:00,
2013-05-04 20:24:00,60.4,31.7,29.96,ENE,67,6.3,6.3,34,0.00,,,0.00,WUHU21623XXSP,2013-05-05 03:24:00,
2013-05-04 20:30:00,60.1,31.4,29.96,NE,45,6.3,10.3,34,0.00,,,0.00,WUHU21623XXSP,2013-05-05 03:30:00,
2013-05-04 20:35:00,59.9,31.2,29.96,NE,45,1.3,10.3,34,0.00,,,0.00,WUHU21623XXSP,2013-05-05 03:35:00,
2013-05-04 20:40:00,59.5,31.6,29.96,NNE,22,6.3,6.3,35,0.00,,,0.00,WUHU21623XXSP,2013-05-05 03:40:00,
2013-05-04 20:45:00,59.4,31.5,29.96,NE,45,2.2,6.3,35,0.00,,,0.00,WUHU21623XXSP,2013-05-05 03:45:00,
2013-05-04 20:51:00,58.8,31.0,29.96,NNE,22,4.3,6.3,35,0.00,,,0.00,WUHU21623XXSP,2013-05-05 03:51:00,
2013-05-04 20:57:00,58.8,31.0,29.97,NNE,22,3.6,4.3,35,0.00,,,0.00,WUHU21623XXSP,2013-05-05 03:57:00,
2013-05-04 21:02:00,58.8,31.0,29.97,NE,45,1.3,4.9,35,0.00,,,0.00,WUHU21623XXSP,2013-05-05 04:02:00,
2013-05-04 21:07:00,58.8,31.7,29.97,NNE,22,2.9,3.8,36,0.00,,,0.00,WUHU21623XXSP,2013-05-05 04:07:00,
2013-05-04 21:12:00,58.5,31.4,29.97,NNE,22,3.8,3.8,36,0.00,,,0.00,WUHU21623XXSP,2013-05-05 04:12:00,
2013-05-04 21:18:00,58.3,31.2,29.97,NE,45,5.1,6.7,36,0.00,,,0.00,WUHU21623XXSP,2013-05-05 04:18:00,
2013-05-04 21:23:00,58.1,31.1,29.97,NE,45,0.0,6.7,36,0.00,,,0.00,WUHU21623XXSP,2013-05-05 04:23:00,
2013-05-04 21:28:00,57.9,30.9,29.97,NNE,22,2.5,3.6,36,0.00,,,0.00,WUHU21623XXSP,2013-05-05 04:28:00,
2013-05-04 21:33:00,57.7,30.8,29.97,ENE,67,6.0,8.3,36,0.00,,,0.00,WUHU21623XXSP,2013-05-05 04:33:00,
2013-05-04 21:38:00,57.7,31.5,29.97,NE,45,1.8,9.2,37,0.00,,,0.00,WUHU21623XXSP,2013-05-05 04:38:00,
2013-05-04 21:44:00,57.4,31.1,29.97,NNW,337,6.5,9.8,37,0.00,,,0.00,WUHU21623XXSP,2013-05-05 04:44:00,
2013-05-04 21:49:00,57.0,30.8,29.97,NE,45,0.0,9.8,37,0.00,,,0.00,WUHU21623XXSP,2013-05-05 04:49:00,
2013-05-04 21:54:00,57.0,30.8,29.97,NE,45,2.5,2.5,37,0.00,,,0.00,WUHU21623XXSP,2013-05-05 04:54:00,
2013-05-04 22:00:00,56.5,30.3,29.97,North,0,0.0,2.5,37,0.00,,,0.00,WUHU21623XXSP,2013-05-05 05:00:00,
2013-05-04 22:05:00,56.3,30.9,29.97,NNW,337,0.4,0.9,38,0.00,,,0.00,WUHU21623XXSP,2013-05-05 05:05:00,
2013-05-04 22:11:00,55.9,30.5,29.97,NNW,337,0.0,1.1,38,0.00,,,0.00,WUHU21623XXSP,2013-05-05 05:11:00,
2013-05-04 22:16:00,55.8,30.4,29.96,North,0,0.0,1.1,38,0.00,,,0.00,WUHU21623XXSP,2013-05-05 05:16:00,
2013-05-04 22:21:00,55.2,29.9,29.97,West,270,0.0,0.9,38,0.00,,,0.00,WUHU21623XXSP,2013-05-05 05:21:00,
2013-05-04 22:26:00,55.0,29.7,29.97,West,270,0.0,0.9,38,0.00,,,0.00,WUHU21623XXSP,2013-05-05 05:26:00,
2013-05-04 22:31:00,54.1,29.6,29.97,West,270,0.0,0.0,39,0.00,,,0.00,WUHU21623XXSP,2013-05-05 05:31:00,
2013-05-04 22:37:00,53.8,29.3,29.97,West,270,0.0,0.0,39,0.00,,,0.00,WUHU21623XXSP,2013-05-05 05:37:00,
2013-05-04 22:42:00,52.9,29.2,29.96,West,270,0.0,1.3,40,0.00,,,0.00,WUHU21623XXSP,2013-05-05 05:42:00,
2013-05-04 22:47:00,52.3,28.7,29.96,West,270,0.0,1.3,40,0.00,,,0.00,WUHU21623XXSP,2013-05-05 05:47:00,
2013-05-04 22:52:00,51.8,28.8,29.96,West,270,1.6,1.6,41,0.00,,,0.00,WUHU21623XXSP,2013-05-05 05:52:00,
2013-05-04 22:58:00,51.6,28.6,29.96,West,270,0.9,1.6,41,0.00,,,0.00,WUHU21623XXSP,2013-05-05 05:58:00,
2013-05-04 23:04:00,51.3,28.9,29.96,West,270,1.8,2.0,42,0.00,,,0.00,WUHU21623XXSP,2013-05-05 06:04:00,
2013-05-04 23:09:00,50.9,28.5,29.96,West,270,0.0,2.0,42,0.00,,,0.00,WUHU21623XXSP,2013-05-05 06:09:00,
2013-05-04 23:14:00,50.7,28.4,29.96,West,270,0.0,1.8,42,0.00,,,0.00,WUHU21623XXSP,2013-05-05 06:14:00,
2013-05-04 23:19:00,50.7,28.9,29.96,West,270,0.0,1.8,43,0.00,,,0.00,WUHU21623XXSP,2013-05-05 06:19:00,
2013-05-04 23:25:00,50.7,28.9,29.95,NNW,337,0.0,0.0,43,0.00,,,0.00,WUHU21623XXSP,2013-05-05 06:25:00,
2013-05-04 23:30:00,50.5,28.8,29.95,NNE,22,0.0,0.0,43,0.00,,,0.00,WUHU21623XXSP,2013-05-05 06:30:00,
2013-05-04 23:35:00,50.5,28.8,29.95,NNE,22,0.0,0.0,43,0.00,,,0.00,WUHU21623XXSP,2013-05-05 06:35:00,
2013-05-04 23:40:00,50.4,29.2,29.95,NNE,22,0.0,0.0,44,0.00,,,0.00,WUHU21623XXSP,2013-05-05 06:40:00,
2013-05-04 23:46:00,50.2,29.0,29.95,North,0,0.0,0.0,44,0.00,,,0.00,WUHU21623XXSP,2013-05-05 06:46:00,
2013-05-04 23:51:00,50.2,29.0,29.95,NNE,22,0.0,0.0,44,0.00,,,0.00,WUHU21623XXSP,2013-05-05 06:51:00,
2013-05-04 23:56:00,50.2,29.0,29.95,NNE,22,3.6,3.6,44,0.00,,,0.00,WUHU21623XXSP,2013-05-05 06:56:00,